カタログに戻る

DELTA 1 DEB

運用中PO
NORAD 21287·DEBRIS·🇺🇸 United States

打ち上げ Jun 12, 1975 から Vandenberg Space Force Base

Loading…

次のパス (今後24時間)

TLE

最新Source: Space-Track

元期: Sep 14, 2026, 21:11 UTC

1 21287U 75052Y   26257.88285090 -.00000037  00000-0  74978-5 0  9992
2 21287  99.7468  36.3264 0131378  46.5369 106.1795 13.17960711701356

AllMySatでDELTA 1 DEBをリアルタイム追跡

Download on the App Store